GW4157 Weather Reports


time (UTC)temp
C
wind
direction
speed
KPH
gust
KPH
rain 1hr
cm
rain 24hr
cm
rain mn
cm
humidity
%
barometer
mb
20260504013038 10 192 6.4 11.3 0.00 0.00 0.00 51 1011.6
20260504011536 10 205 4.8 9.7 0.00 0.00 0.00 50 1011.3
20260504010042 10 195 3.2 8.0 0.00 0.00 0.00 49 1011.5
20260504004535 10 213 4.8 14.5 0.00 0.00 0.00 48 1011.4
20260504003045 11 188 3.2 11.3 0.00 0.00 0.00 47 1011.3
20260504001535 11 196 4.8 16.1 0.00 0.00 0.00 45 1011.3
20260504000037 11 207 8.0 16.1 0.00 0.00 0.00 45 1011.3
20260503234546 11 184 8.0 16.1 0.00 0.00 0.00 45 1011.2
20260503233035 11 248 6.4 17.7 0.00 0.00 0.00 45 1011.3
20260503231540 12 212 6.4 17.7 0.00 0.00 0.00 44 1011.4
20260503230045 12 204 9.7 16.1 0.00 0.00 0.00 44 1011.5
20260503224536 12 196 11.3 17.7 0.00 0.00 0.00 42 1011.3
20260503223039 12 192 6.4 12.9 0.00 0.00 0.00 43 1011.4
20260503221537 12 186 6.4 16.1 0.00 0.00 0.00 41 1011.2
20260503220046 12 245 4.8 17.7 0.00 0.00 0.00 41 1011.2
20260503214541 13 213 4.8 20.9 0.00 0.00 0.00 41 1011.2
20260503213038 13 192 9.7 20.9 0.00 0.00 0.00 40 1011.1
20260503211537 13 197 4.8 16.1 0.00 0.00 0.00 41 1011.1
20260503210038 12 229 11.3 20.9 0.00 0.00 0.00 41 1011.2
20260503204537 13 168 11.3 20.9 0.00 0.00 0.00 40 1011.2
20260503203038 12 216 4.8 27.4 0.00 0.00 0.00 42 1011.3
20260503201537 12 167 6.4 29.0 0.00 0.00 0.00 41 1011.5
20260503200042 12 198 3.2 16.1 0.00 0.00 0.00 44 1011.7
20260503194539 12 213 8.0 22.5 0.00 0.00 0.00 40 1012.2
20260503193048 12 221 9.7 20.9 0.00 0.00 0.00 42 1012.3
20260503191539 12 273 6.4 19.3 0.00 0.00 0.00 42 1012.4
20260503190036 12 207 8.0 19.3 0.00 0.00 0.00 42 1012.6
20260503184544 11 271 9.7 25.7 0.00 0.00 0.00 43 1012.8
20260503183053 11 225 9.7 22.5 0.00 0.00 0.00 44 1013.0
20260503181539 11 212 11.3 22.5 0.00 0.00 0.00 42 1013.0
20260503180038 11 202 12.9 24.1 0.00 0.00 0.00 42 1013.1
20260503174537 11 242 11.3 24.1 0.00 0.00 0.00 45 1013.1
20260503173037 11 223 11.3 25.7 0.00 0.00 0.00 41 1013.1
20260503171539 11 230 9.7 25.7 0.00 0.00 0.00 48 1013.4
20260503081545 -1 0 0.0 3.2 0.00 0.03 0.00 89 1013.5
20260503071535 -1 0 0.0 3.2 0.00 0.03 0.00 86 1013.6
20260503054543 -1 0 0.0 0.0 0.00 0.03 0.00 87 1013.9
20260503053034 -1 0 0.0 0.0 0.00 0.03 0.00 87 1014.0
20260503051537 -1 0 0.0 0.0 0.00 0.03 0.00 85 1014.0
20260503050039 0 0 0.0 0.0 0.00 0.03 0.00 83 1014.1
20260503044533 0 0 0.0 0.0 0.00 0.03 0.00 80 1014.2
20260503043034 0 0 0.0 3.2 0.00 0.03 0.00 78 1014.2
20260503041535 1 0 0.0 1.6 0.00 0.03 0.00 77 1014.3
20260503040045 1 0 0.0 3.2 0.00 0.03 0.00 77 1014.3
20260503034539 1 0 0.0 3.2 0.00 0.03 0.03 76 1014.3
20260503033042 1 0 0.0 0.0 0.00 0.03 0.03 75 1014.4
20260503031546 1 0 0.0 3.2 0.00 0.03 0.03 75 1014.4
20260503030040 1 0 0.0 3.2 0.00 0.03 0.03 74 1014.5
20260503024542 1 0 0.0 3.2 0.00 0.03 0.03 73 1014.4
20260503023036 2 261 0.0 3.2 0.00 0.03 0.03 71 1014.6
20260503021535 2 261 1.6 4.8 0.00 0.03 0.03 70 1014.6
20260503020035 2 0 0.0 3.2 0.00 0.03 0.03 69 1014.5
20260503014541 2 302 1.6 4.8 0.00 0.03 0.03 68 1014.4